Regional Weather Roundup
Issued by NWS

Home | Current Version | Previous Version | Graphics & Text | Print | Product List | Glossary On
Versions: 1 2 3 4 5 6 7 8 9 10 11 12 13 14 15 16 17 18 19 20 21 22 23 24 25 26 27 28 29 30 31 32 33 34 35 36 37 38 39 40 41 42 43 44 45 46 47 48 49 50
000
ASUS43 KLSX 261307
RWRMO

WEATHER SUMMARY FOR MISSOURI
NATIONAL WEATHER SERVICE SPRINGFIELD MO
700 AM CST FRI DEC 26 2014

NOTE: "FAIR" INDICATES FEW OR NO CLOUDS BELOW 12,000 FEET WITH NO
       SIGNIFICANT WEATHER AND/OR OBSTRUCTIONS TO VISIBILITY.
       CURRENT SKY AND/OR WEATHER CONDITIONS ARE NOT AVAILABLE FOR
       CHILLICOTHE AND FARMINGTON.

MOZ001>031-035>038-043-044-053-054-261400-
...NORTHERN AND WESTERN MISSOURI...

CITY           SKY/WX    TMP DP  RH WIND       PRES   REMARKS
KANSAS CTY INT CLOUDY    43  34  70 S9        29.88R
KANSAS C DTWN  CLOUDY    48  35  60 S9        29.89R
LEE`S SUMMIT   MOCLDY    44  33  65 S9        29.91R
ST JOSEPH      CLOUDY    36  30  79 CALM      29.88R
CHILLICOTHE      N/A     45  33  63 S10       29.92R
KIRKSVILLE     CLOUDY    37  34  89 S8        29.93R

$$
MOZ066>068-077>081-088>096-101>105-261400-
...SOUTHWEST MISSOURI...

CITY           SKY/WX    TMP DP  RH WIND       PRES   REMARKS
SPRINGFIELD    CLEAR     41  35  79 S16       29.99R
JOPLIN         PTCLDY    47  40  76 S15       29.95S

$$
MOZ032>034-039>042-045>050-055>058-069>072-261400-
...CENTRAL MISSOURI...

CITY           SKY/WX    TMP DP  RH WIND       PRES   REMARKS
COLUMBIA       PTCLDY    40  34  79 SE10      29.98R
JEFFERSON CITY CLEAR     41  34  76 E7        30.01R
ROLLA          CLEAR     40  35  83 S16       30.02R
SEDALIA        MOCLDY    45  35  68 S15       29.95R
WHITEMAN AFB   MOCLDY    43  36  74 S13       29.93R
WARRENSBURG    MOCLDY    43  34  70 S10       29.92S
OSAGE BEACH    CLEAR     43  34  70 S9        30.00R

$$
MOZ051-052-059>065-261400-
...EAST CENTRAL MISSOURI...

CITY           SKY/WX    TMP DP  RH WIND       PRES   REMARKS
ST LOUIS INTL  MOCLDY    43  35  73 S8        30.06R
SPIRIT OF STL  CLEAR     43  35  73 S5        30.05R
ST CHARLES     CLEAR     33  31  92 E7        30.06R WCI  27

$$
MOZ072>076-082>087-097>100-106>115-261400-
...SOUTH CENTRAL AND SOUTHEAST MISSOURI...

CITY           SKY/WX    TMP DP  RH WIND       PRES   REMARKS
CAPE GIRARDEAU PTCLDY    38  34  85 S7        30.18R
POPLAR BLUFF   PTCLDY    32  30  92 CALM      30.16R
WEST PLAINS    CLEAR     36  33  89 S6        30.09R

$$


USA.gov is the U.S. government's official web portal to all federal, state and local government web resources and services.